EW4987 Weather Reports


time (UTC)temp
C
wind
direction
speed
KPH
gust
KPH
rain 1hr
cm
rain 24hr
cm
rain mn
cm
humidity
%
barometer
mb
20260508213011 20 302 0.0 0.0 0.00 0.00 0.00 23 1010.6
20260508211509 19 252 0.0 0.0 0.00 0.00 0.00 26 1010.9
20260508210006 19 254 0.0 0.0 0.00 0.00 0.00 20 1010.7
20260508204601 18 262 0.0 0.0 0.00 0.00 0.00 24 1010.7
20260508203058 19 284 0.0 0.0 0.00 0.00 0.00 25 1010.7
20260508201600 20 232 0.0 0.0 0.00 0.00 0.00 27 1010.5
20260508200058 20 305 0.0 0.0 0.00 0.00 0.00 25 1010.6
20260508194543 19 319 0.0 0.0 0.00 0.00 0.00 28 1010.4
20260508193138 19 329 0.0 0.0 0.00 0.00 0.00 29 1010.7
20260508191537 19 262 0.0 0.0 0.00 0.00 0.00 24 1010.9
20260508190038 19 286 0.0 0.0 0.00 0.00 0.00 33 1010.9
20260508184525 19 332 0.0 0.0 0.00 0.00 0.00 32 1010.9
20260508183020 19 288 0.0 0.0 0.00 0.00 0.00 31 1010.9
20260508181516 18 305 0.0 0.0 0.00 0.00 0.00 34 1011.0
20260508180010 18 319 0.0 0.0 0.00 0.00 0.00 29 1011.3
20260508174516 18 307 0.0 0.0 0.00 0.00 0.00 31 1011.4
20260508173002 18 331 0.0 0.0 0.00 0.00 0.00 34 1011.7
20260508171601 17 342 0.0 0.0 0.00 0.00 0.00 35 1011.8
20260508170056 16 323 0.0 0.0 0.00 0.00 0.00 41 1012.0
20260508164550 15 253 0.0 0.0 0.00 0.00 0.00 31 1012.3
20260508163110 13 250 0.0 0.0 0.00 0.00 0.00 33 1012.4
20260508161540 13 250 0.0 0.0 0.00 0.00 0.00 27 1012.7
20260508160036 11 250 0.0 0.0 0.00 0.00 0.00 7 1012.8
20260508154531 11 250 0.0 0.0 0.00 0.00 0.00 5 1013.0
20260508153030 10 250 0.0 0.0 0.00 0.00 0.00 1 1013.1
20260508151531 10 250 0.0 0.0 0.00 0.00 0.00 1 1013.1
20260508150017 8 250 0.0 0.0 0.00 0.00 0.00 1 1013.2
20260508144513 7 250 0.0 0.0 0.00 0.00 0.00 1 1013.4
20260508143009 6 250 0.0 0.0 0.00 0.00 0.00 1 1013.5
20260508141505 5 250 0.0 0.0 0.00 0.00 0.00 1 1013.6
20260508140100 5 250 0.0 0.0 0.00 0.00 0.00 1 1013.7
20260508134601 3 250 0.0 0.0 0.00 0.00 0.00 1 1013.7
20260508133051 2 250 0.0 0.0 0.00 0.00 0.00 1 1013.6
20260508131554 2 250 0.0 0.0 0.00 0.00 0.00 1 1013.5
20260508130053 1 250 0.0 0.0 0.00 0.00 0.00 1 1013.3
20260508124538 1 250 0.0 0.0 0.00 0.00 0.00 1 1013.2
20260508123037 1 250 0.0 0.0 0.00 0.00 0.00 1 1013.1
20260508121530 1 250 0.0 0.0 0.00 0.00 0.00 1 1012.9
20260508120025 1 250 0.0 0.0 0.00 0.00 0.00 1 1012.7
20260508114521 1 250 0.0 0.0 0.00 0.00 0.00 1 1012.6
20260508113016 1 250 0.0 0.0 0.00 0.00 0.00 1 1012.6
20260508111512 1 250 0.0 0.0 0.00 0.00 0.00 1 1012.5
20260508110007 2 250 0.0 0.0 0.00 0.00 0.00 1 1012.4
20260508104502 2 250 0.0 0.0 0.00 0.00 0.00 1 1012.5
20260508103100 2 250 0.0 0.0 0.00 0.00 0.00 1 1012.3
20260508101556 2 250 0.0 0.0 0.00 0.00 0.00 1 1012.1
20260508100050 2 250 0.0 0.0 0.00 0.00 0.00 1 1011.9
20260508094553 2 250 0.0 0.0 0.00 0.00 0.00 1 1011.8
20260508093053 2 250 0.0 0.0 0.00 0.00 0.00 1 1011.7
20260508091539 3 250 0.0 0.0 0.00 0.00 0.00 1 1011.7
20260508090051 3 250 0.0 0.0 0.00 0.00 0.00 1 1011.5
20260508084528 3 250 0.0 0.0 0.00 0.00 0.00 1 1011.7
20260508083026 3 250 0.0 0.0 0.00 0.00 0.00 1 1011.5
20260508081520 3 250 0.0 0.0 0.00 0.00 0.00 1 1011.5
20260508080030 3 250 0.0 0.0 0.00 0.00 0.00 1 1011.5
20260508074514 4 250 0.0 0.0 0.00 0.00 0.00 1 1011.5
20260508073006 5 250 0.0 0.0 0.00 0.00 0.00 1 1011.4
20260508071501 5 250 0.0 0.0 0.00 0.00 0.00 1 1011.2
20260508070057 5 250 0.0 0.0 0.00 0.00 0.00 1 1011.1
20260508064553 6 250 0.0 0.0 0.00 0.00 0.00 1 1011.0
20260508063053 6 250 0.0 0.0 0.00 0.00 0.00 18 1010.8
20260508061547 6 250 0.0 0.0 0.00 0.00 0.00 23 1010.6
20260508060043 6 250 0.0 0.0 0.00 0.00 0.00 34 1010.5
20260508054544 7 250 0.0 0.0 0.00 0.00 0.00 44 1010.3
20260508053032 7 250 0.0 0.0 0.00 0.00 0.00 50 1010.1
20260508051528 8 250 0.0 0.0 0.00 0.00 0.00 51 1009.9
20260508050029 9 250 0.0 0.0 0.00 0.00 0.00 51 1010.0
20260508044521 9 250 0.0 0.0 0.00 0.00 0.00 51 1010.0
20260508043017 10 250 0.0 0.0 0.00 0.00 0.00 51 1010.0
20260508041512 10 250 0.0 0.0 0.00 0.00 0.00 50 1009.9
20260508040010 11 250 0.0 0.0 0.00 0.00 0.00 50 1009.8
20260508034504 11 250 0.0 0.0 0.00 0.00 0.00 49 1009.7
20260508033059 11 250 0.0 0.0 0.00 0.00 0.00 49 1009.5
20260508031602 12 250 0.0 0.0 0.00 0.00 0.00 48 1009.3
20260508030107 12 250 0.0 0.0 0.00 0.00 0.00 47 1009.1
20260508024546 14 250 0.0 0.0 0.00 0.00 0.00 45 1009.0
20260508023046 15 282 0.0 0.0 0.00 0.00 0.00 41 1008.9
20260508021538 16 291 0.0 0.0 0.00 0.00 0.00 37 1008.8
20260508020033 17 279 0.0 0.0 0.00 0.00 0.00 33 1008.7
20260508014533 18 283 0.0 0.0 0.00 0.00 0.00 33 1008.7
20260508013024 19 263 0.0 0.0 0.00 0.00 0.00 30 1008.7
20260508011521 19 236 0.0 0.0 0.00 0.00 0.00 30 1008.6
20260508010031 18 254 0.0 0.0 0.00 0.00 0.00 33 1008.6
20260508004518 18 292 0.0 0.0 0.00 0.00 0.00 36 1008.9
20260508003009 19 251 0.0 0.0 0.00 0.00 0.00 33 1009.2
20260508001502 19 296 0.0 0.0 0.00 0.00 0.00 35 1009.4
20260508000057 18 344 0.0 0.0 0.00 0.00 0.00 32 1009.8
20260507234553 18 296 0.0 0.0 0.00 0.00 0.00 34 1010.0
20260507233049 17 269 0.0 0.0 0.00 0.00 0.00 33 1010.2
20260507231552 17 255 0.0 0.0 0.00 0.00 0.00 35 1010.3
20260507230040 18 270 0.0 0.0 0.00 0.00 0.00 32 1010.3
20260507224550 18 239 0.0 0.0 0.00 0.00 0.00 33 1010.6
20260507223030 18 295 0.0 0.0 0.00 0.00 0.00 31 1010.9
20260507221534 19 284 0.0 0.0 0.00 0.00 0.00 30 1010.9
20260507220022 19 290 0.0 0.0 0.00 0.00 0.00 29 1010.9
20260507214520 19 293 0.0 0.0 0.00 0.00 0.00 29 1011.0